Regional Weather Roundup
Issued by NWS

Home | Current Version | Previous Version | Graphics & Text | Print | Product List | Glossary On
Versions: 1 2 3 4 5 6 7 8 9 10 11 12 13 14 15 16 17 18 19 20 21 22 23 24 25 26 27 28 29 30 31 32 33 34 35 36 37 38 39 40 41 42 43 44 45 46 47 48 49 50
000
ASUS43 KLMK 020102
RWRKY
KENTUCKY REGIONAL WEATHER ROUNDUP
NATIONAL WEATHER SERVICE LOUISVILLE KY
900 PM EDT SAT AUG 01 2015

NOTE "FAIR" INDICATES FEW OR NO CLOUDS BELOW 12,000 FEET
WITH NO SIGNIFICANT WEATHER AND/OR OBSTRUCTIONS TO VISIBILITY.

KYZ001>023-026-027-061>063-070>075-020200-
WESTERN AND SOUTH CENTRAL KENTUCKY

CITY           SKY/WX    TMP DP  RH WIND       PRES   REMARKS
PADUCAH        MOCLDY    82  71  69 E5        29.96S
HENDERSON      CLEAR     75  66  73 CALM      29.97R
OWENSBORO      CLEAR     82  62  50 CALM      29.98S
HOPKINSVILLE   NOT AVBL
BOWLING GREEN  PTCLDY    80  61  52 VRB3      29.98S
GLASGOW        NOT AVBL
$$

KYZ024-025-028>034-038-045-046-053-020200-
NORTH CENTRAL KENTUCKY

CITY           SKY/WX    TMP DP  RH WIND       PRES   REMARKS
LOUISVILLE/SDF PTCLDY    81  55  40 NE7       29.97R
LOUISVILLE/LOU CLEAR     80  56  43 CALM      29.99R
FORT KNOX      CLEAR     70  64  81 CALM      29.98R
$$

KYZ035>037-039>044-047>052-055>060-089>105-020200-
NORTHEAST KENTUCKY

CITY           SKY/WX    TMP DP  RH WIND       PRES   REMARKS
LEXINGTON      CLEAR     74  59  59 N7        30.00R
COVINGTON      PTCLDY    76  57  51 W5        29.99R
FRANKFORT      CLEAR     74  60  61 NW3       29.98S
$$

KYZ054-064>069-076>088-106>120-020200-
SOUTHEAST KENTUCKY

CITY           SKY/WX    TMP DP  RH WIND       PRES   REMARKS
JACKSON        PTCLDY    76  56  49 CALM      30.00R
LONDON         PTCLDY    78  56  46 N5        29.99S
SOMERSET       NOT AVBL
MIDDLESBORO    CLEAR     74  65  73 CALM      30.00R
MONTICELLO     CLEAR     72  65  78 CALM      30.01S
$$




USA.gov is the U.S. government's official web portal to all federal, state and local government web resources and services.